AZU2695 SBKP-SBGO

Flight info

Callsign AZU2695
Flight time 1h 14m
Altitude 35000
Route ISMOB DCT CORVO
Aircraft A320/M-SDE3FGHIRWY/LB1

Departure

Time 2026-05-06 00:53
Airport Viracopos International Airport (SBKP)

Arrival

Time 2026-05-06 02:08
Airport Santa Genoveva International Airport (SBGO)
Time Latitude Longitude Altitude Speed Heading
2026-05-06 00:40 -23.00428 -47.14824 2157 ft 0 kts 218°
2026-05-06 00:46 -23.00419 -47.14816 2154 ft 4 kts 225°
2026-05-06 00:46 -23.00405 -47.14793 2152 ft 4 kts 259°
2026-05-06 00:47 -23.00408 -47.14769 2152 ft 2 kts 307°
2026-05-06 00:47 -23.00411 -47.14764 2151 ft 0 kts 308°
2026-05-06 00:50 -23.00410 -47.14766 2151 ft 2 kts 308°
2026-05-06 00:50 -23.00386 -47.14799 2155 ft 6 kts 308°
2026-05-06 00:50 -23.00331 -47.14874 2151 ft 15 kts 308°
2026-05-06 00:51 -23.00271 -47.14957 2152 ft 13 kts 308°
2026-05-06 00:51 -23.00212 -47.15018 2154 ft 11 kts 352°
2026-05-06 00:51 -23.00145 -47.14974 2152 ft 12 kts 39°
2026-05-06 00:51 -23.00083 -47.14920 2156 ft 11 kts 39°
2026-05-06 00:52 -23.00023 -47.14862 2151 ft 15 kts 53°
2026-05-06 00:52 -22.99918 -47.14748 2153 ft 23 kts 53°
2026-05-06 00:52 -22.99930 -47.14585 2152 ft 26 kts 124°
2026-05-06 00:52 -23.00167 -47.14250 2151 ft 91 kts 128°
2026-05-06 00:53 -23.00680 -47.13531 2154 ft 147 kts 128°
2026-05-06 00:53 -23.01379 -47.12543 2425 ft 174 kts 127°
2026-05-06 00:53 -23.01816 -47.11297 3058 ft 183 kts 92°
2026-05-06 00:53 -23.01729 -47.09906 3708 ft 191 kts 83°
2026-05-06 00:54 -23.01513 -47.08387 4018 ft 216 kts 81°
2026-05-06 00:54 -23.01255 -47.06695 4412 ft 240 kts 81°
2026-05-06 00:54 -23.00982 -47.04833 4975 ft 256 kts 81°
2026-05-06 00:54 -23.00667 -47.02903 5734 ft 264 kts 73°
2026-05-06 00:55 -22.99705 -47.01197 6525 ft 272 kts 44°
2026-05-06 00:55 -22.98203 -46.99912 7343 ft 277 kts 38°
2026-05-06 00:55 -22.96667 -46.98665 7812 ft 281 kts 38°
2026-05-06 00:55 -22.95076 -46.97382 7967 ft 281 kts 38°
2026-05-06 00:56 -22.93512 -46.96120 7989 ft 279 kts 38°
2026-05-06 00:56 -22.92397 -46.95274 7990 ft 279 kts 31°
2026-05-06 00:56 -22.90558 -46.94612 7985 ft 282 kts
2026-05-06 00:56 -22.88593 -46.94846 8267 ft 293 kts 341°
2026-05-06 00:57 -22.86775 -46.95844 9193 ft 293 kts 332°
2026-05-06 00:57 -22.84994 -46.96931 10102 ft 296 kts 332°
2026-05-06 00:57 -22.83160 -46.98055 10588 ft 313 kts 331°
2026-05-06 00:57 -22.81203 -46.99255 10907 ft 333 kts 331°
2026-05-06 00:58 -22.79159 -47.00511 11531 ft 341 kts 331°
2026-05-06 00:58 -22.77078 -47.01791 12231 ft 346 kts 331°
2026-05-06 00:58 -22.74958 -47.03059 12919 ft 351 kts 333°
2026-05-06 00:58 -22.72772 -47.04288 13576 ft 357 kts 333°
2026-05-06 00:59 -22.70540 -47.05499 14204 ft 362 kts 334°
2026-05-06 00:59 -22.68272 -47.06716 14785 ft 365 kts 334°
2026-05-06 00:59 -22.65983 -47.07947 15377 ft 369 kts 333°
2026-05-06 00:59 -22.63682 -47.09191 15975 ft 372 kts 333°
2026-05-06 01:00 -22.61358 -47.10457 16569 ft 375 kts 333°
2026-05-06 01:00 -22.59021 -47.11735 17160 ft 378 kts 333°
2026-05-06 01:00 -22.56664 -47.13027 17744 ft 381 kts 332°
2026-05-06 01:00 -22.54290 -47.14328 18316 ft 385 kts 332°
2026-05-06 01:01 -22.51890 -47.15644 18837 ft 388 kts 332°
2026-05-06 01:01 -22.49475 -47.16971 19334 ft 391 kts 332°
2026-05-06 01:01 -22.47072 -47.18289 19826 ft 394 kts 332°
2026-05-06 01:01 -22.44611 -47.19635 20298 ft 398 kts 332°
2026-05-06 01:02 -22.42133 -47.20987 20776 ft 401 kts 332°
2026-05-06 01:02 -22.39629 -47.22355 21260 ft 404 kts 331°
2026-05-06 01:02 -22.37111 -47.23735 21745 ft 407 kts 331°
2026-05-06 01:02 -22.34572 -47.25126 22228 ft 410 kts 331°
2026-05-06 01:03 -22.31995 -47.26494 22691 ft 415 kts 335°
2026-05-06 01:03 -22.29228 -47.27445 23156 ft 420 kts 347°
2026-05-06 01:03 -22.26306 -47.27806 23625 ft 426 kts 358°
2026-05-06 01:03 -22.23344 -47.27547 24026 ft 430 kts
2026-05-06 01:04 -22.20380 -47.27003 24410 ft 434 kts
2026-05-06 01:04 -22.17390 -47.26463 24790 ft 437 kts
2026-05-06 01:04 -22.14383 -47.25927 25167 ft 440 kts
2026-05-06 01:04 -22.11352 -47.25392 25535 ft 443 kts
2026-05-06 01:05 -22.08295 -47.24855 25892 ft 447 kts
2026-05-06 01:05 -22.05215 -47.24316 26261 ft 450 kts
2026-05-06 01:05 -22.02151 -47.23782 26624 ft 453 kts
2026-05-06 01:05 -21.98989 -47.23230 26989 ft 456 kts
2026-05-06 01:06 -21.95883 -47.22686 27343 ft 459 kts
2026-05-06 01:06 -21.92675 -47.22121 27693 ft 463 kts
2026-05-06 01:06 -21.89526 -47.21566 28044 ft 466 kts
2026-05-06 01:06 -21.86318 -47.21003 28386 ft 469 kts
2026-05-06 01:07 -21.83086 -47.20447 28690 ft 472 kts
2026-05-06 01:07 -21.79809 -47.20236 29007 ft 472 kts 356°
2026-05-06 01:07 -21.76549 -47.20576 29316 ft 471 kts 346°
2026-05-06 01:07 -21.73375 -47.21435 29633 ft 471 kts 340°
2026-05-06 01:08 -21.70222 -47.22432 29961 ft 474 kts 340°
2026-05-06 01:08 -21.67049 -47.23427 30286 ft 476 kts 340°
2026-05-06 01:08 -21.63859 -47.24421 30558 ft 479 kts 340°
2026-05-06 01:08 -21.60653 -47.25416 30833 ft 481 kts 340°
2026-05-06 01:09 -21.57429 -47.26414 31107 ft 483 kts 340°
2026-05-06 01:09 -21.54190 -47.27415 31376 ft 485 kts 339°
2026-05-06 01:09 -21.50942 -47.28422 31633 ft 487 kts 339°
2026-05-06 01:09 -21.47685 -47.29434 31974 ft 487 kts 339°
2026-05-06 01:10 -21.44438 -47.30444 32359 ft 485 kts 339°
2026-05-06 01:10 -21.41196 -47.31456 32740 ft 485 kts 339°
2026-05-06 01:10 -21.37957 -47.32468 33081 ft 485 kts 339°
2026-05-06 01:10 -21.34715 -47.33480 33425 ft 485 kts 338°
2026-05-06 01:11 -21.31473 -47.34488 33782 ft 484 kts 338°
2026-05-06 01:11 -21.28239 -47.35490 34141 ft 484 kts 338°
2026-05-06 01:11 -21.25006 -47.36490 34441 ft 484 kts 338°
2026-05-06 01:11 -21.21768 -47.37494 34695 ft 485 kts 338°
2026-05-06 01:12 -21.18526 -47.38501 34924 ft 485 kts 338°
2026-05-06 01:12 -21.15275 -47.39509 35101 ft 488 kts 337°
2026-05-06 01:12 -21.12059 -47.40505 35182 ft 485 kts 337°
2026-05-06 01:13 -21.05581 -47.42506 35192 ft 480 kts 337°
2026-05-06 01:13 -20.99222 -47.44477 35195 ft 479 kts 337°
2026-05-06 01:14 -20.89610 -47.47446 35193 ft 480 kts 337°
2026-05-06 01:14 -20.83193 -47.49428 35194 ft 480 kts 337°
2026-05-06 01:15 -20.76771 -47.51405 35202 ft 480 kts 337°
2026-05-06 01:15 -20.70351 -47.53380 35190 ft 480 kts 337°
2026-05-06 01:16 -20.63929 -47.55355 35182 ft 481 kts 337°
2026-05-06 01:16 -20.57498 -47.57334 35187 ft 481 kts 337°
2026-05-06 01:17 -20.51063 -47.59309 35183 ft 481 kts 337°
2026-05-06 01:17 -20.44630 -47.61286 35179 ft 481 kts 337°
2026-05-06 01:18 -20.38189 -47.63264 35181 ft 482 kts 337°
2026-05-06 01:18 -20.31787 -47.65221 35176 ft 482 kts 337°
2026-05-06 01:19 -20.25343 -47.67190 35162 ft 482 kts 337°
2026-05-06 01:19 -20.18897 -47.69164 35161 ft 482 kts 337°
2026-05-06 01:20 -20.12445 -47.71134 35164 ft 483 kts 337°
2026-05-06 01:20 -20.05979 -47.73106 35162 ft 483 kts 337°
2026-05-06 01:21 -19.99507 -47.75079 35157 ft 484 kts 337°
2026-05-06 01:21 -19.93035 -47.77052 35168 ft 484 kts 337°
2026-05-06 01:22 -19.86557 -47.79030 35174 ft 485 kts 337°
2026-05-06 01:22 -19.80080 -47.81007 35151 ft 485 kts 338°
2026-05-06 01:23 -19.74688 -47.82645 35216 ft 485 kts 338°
2026-05-06 01:23 -19.67145 -47.84926 35176 ft 485 kts 338°
2026-05-06 01:24 -19.60658 -47.86897 35180 ft 485 kts 338°
2026-05-06 01:24 -19.54165 -47.88871 35171 ft 486 kts 338°
2026-05-06 01:25 -19.48726 -47.90516 35177 ft 486 kts 338°
2026-05-06 01:25 -19.42265 -47.92472 35182 ft 486 kts 338°
2026-05-06 01:26 -19.35753 -47.94446 35189 ft 487 kts 338°
2026-05-06 01:26 -19.29242 -47.96419 35196 ft 487 kts 338°
2026-05-06 01:27 -19.22725 -47.98384 35193 ft 487 kts 338°
2026-05-06 01:27 -19.16211 -48.00342 35195 ft 487 kts 338°
2026-05-06 01:28 -19.09706 -48.02305 35183 ft 486 kts 338°
2026-05-06 01:28 -19.03200 -48.04272 35181 ft 486 kts 338°
2026-05-06 01:29 -18.96696 -48.06226 35251 ft 486 kts 338°
2026-05-06 01:29 -18.90194 -48.08188 35267 ft 485 kts 337°
2026-05-06 01:30 -18.83817 -48.10443 35251 ft 482 kts 333°
2026-05-06 01:30 -18.77557 -48.12956 35251 ft 482 kts 332°
2026-05-06 01:31 -18.71283 -48.15468 35237 ft 482 kts 333°
2026-05-06 01:31 -18.65008 -48.17864 35208 ft 483 kts 334°
2026-05-06 01:32 -18.58678 -48.20241 35185 ft 483 kts 334°
2026-05-06 01:32 -18.52356 -48.22632 35155 ft 483 kts 334°
2026-05-06 01:33 -18.46033 -48.25039 35156 ft 483 kts 334°
2026-05-06 01:33 -18.39721 -48.27445 35152 ft 483 kts 334°
2026-05-06 01:34 -18.33400 -48.29852 35155 ft 483 kts 334°
2026-05-06 01:34 -18.27076 -48.32252 35152 ft 483 kts 334°
2026-05-06 01:35 -18.20758 -48.34646 35153 ft 483 kts 334°
2026-05-06 01:35 -18.14438 -48.37044 35142 ft 482 kts 334°
2026-05-06 01:36 -18.08127 -48.39441 35145 ft 482 kts 334°
2026-05-06 01:36 -18.01808 -48.41832 35144 ft 483 kts 334°
2026-05-06 01:37 -17.95490 -48.44225 35134 ft 482 kts 334°
2026-05-06 01:37 -17.89215 -48.46599 35149 ft 482 kts 334°
2026-05-06 01:38 -17.82905 -48.48984 34509 ft 483 kts 334°
2026-05-06 01:38 -17.79731 -48.50180 33765 ft 485 kts 335°
2026-05-06 01:38 -17.76569 -48.51365 33207 ft 481 kts 335°
2026-05-06 01:39 -17.73422 -48.52547 32625 ft 478 kts 335°
2026-05-06 01:39 -17.70407 -48.53928 32060 ft 468 kts 325°
2026-05-06 01:39 -17.67651 -48.55681 31567 ft 461 kts 322°
2026-05-06 01:39 -17.64941 -48.57440 31061 ft 457 kts 323°
2026-05-06 01:40 -17.62245 -48.59178 30592 ft 452 kts 323°
2026-05-06 01:40 -17.59576 -48.60892 30102 ft 448 kts 323°
2026-05-06 01:40 -17.56940 -48.62584 29623 ft 442 kts 323°
2026-05-06 01:40 -17.54329 -48.64261 29121 ft 437 kts 324°
2026-05-06 01:41 -17.51757 -48.65913 28687 ft 431 kts 324°
2026-05-06 01:41 -17.49217 -48.67543 28247 ft 425 kts 324°
2026-05-06 01:41 -17.46717 -48.69151 27808 ft 420 kts 324°
2026-05-06 01:41 -17.44241 -48.70744 27357 ft 415 kts 324°
2026-05-06 01:42 -17.41793 -48.72316 26914 ft 411 kts 324°
2026-05-06 01:42 -17.39368 -48.73874 26467 ft 407 kts 324°
2026-05-06 01:42 -17.36962 -48.75422 26008 ft 404 kts 325°
2026-05-06 01:42 -17.34573 -48.76959 25552 ft 402 kts 325°
2026-05-06 01:43 -17.32202 -48.78482 25083 ft 400 kts 325°
2026-05-06 01:43 -17.29837 -48.80004 24605 ft 398 kts 326°
2026-05-06 01:43 -17.27482 -48.81518 24114 ft 397 kts 326°
2026-05-06 01:43 -17.25130 -48.83031 23621 ft 397 kts 326°
2026-05-06 01:44 -17.22782 -48.84539 23091 ft 395 kts 326°
2026-05-06 01:44 -17.20451 -48.86035 22632 ft 392 kts 326°
2026-05-06 01:44 -17.18161 -48.87501 22169 ft 390 kts 327°
2026-05-06 01:44 -17.15853 -48.88976 21704 ft 388 kts 327°
2026-05-06 01:45 -17.13561 -48.90441 21246 ft 386 kts 327°
2026-05-06 01:45 -17.11278 -48.91900 20797 ft 384 kts 327°
2026-05-06 01:45 -17.09003 -48.93356 20332 ft 382 kts 327°
2026-05-06 01:45 -17.06735 -48.94806 19876 ft 381 kts 327°
2026-05-06 01:46 -17.04480 -48.96249 19425 ft 380 kts 327°
2026-05-06 01:46 -17.02224 -48.97694 18973 ft 380 kts 327°
2026-05-06 01:46 -16.99976 -48.99133 18550 ft 378 kts 327°
2026-05-06 01:46 -16.97741 -49.00562 18076 ft 376 kts 327°
2026-05-06 01:47 -16.95526 -49.01978 17699 ft 372 kts 327°
2026-05-06 01:47 -16.93326 -49.03385 17296 ft 368 kts 328°
2026-05-06 01:47 -16.91142 -49.04778 16823 ft 367 kts 328°
2026-05-06 01:47 -16.88989 -49.06149 16365 ft 358 kts 328°
2026-05-06 01:48 -16.86886 -49.07489 15922 ft 352 kts 328°
2026-05-06 01:48 -16.84804 -49.08816 15522 ft 351 kts 328°
2026-05-06 01:48 -16.82726 -49.10150 15127 ft 349 kts 326°
2026-05-06 01:48 -16.80879 -49.11781 14728 ft 348 kts 312°
2026-05-06 01:49 -16.79462 -49.13813 14339 ft 347 kts 300°
2026-05-06 01:49 -16.78257 -49.15987 13981 ft 344 kts 300°
2026-05-06 01:49 -16.77055 -49.18140 13536 ft 344 kts 301°
2026-05-06 01:49 -16.75855 -49.20281 13131 ft 341 kts 301°
2026-05-06 01:50 -16.74661 -49.22400 12683 ft 333 kts 301°
2026-05-06 01:50 -16.73509 -49.24444 12314 ft 325 kts 301°
2026-05-06 01:50 -16.72366 -49.26476 11919 ft 324 kts 301°
2026-05-06 01:50 -16.71243 -49.28473 11534 ft 323 kts 301°
2026-05-06 01:51 -16.70198 -49.30333 11160 ft 323 kts 301°
2026-05-06 01:51 -16.69069 -49.32346 10721 ft 316 kts 302°
2026-05-06 01:51 -16.67977 -49.34290 10314 ft 306 kts 302°
2026-05-06 01:51 -16.66916 -49.36176 9882 ft 297 kts 302°
2026-05-06 01:52 -16.65900 -49.37982 9458 ft 288 kts 302°
2026-05-06 01:52 -16.64904 -49.39753 9051 ft 278 kts 302°
2026-05-06 01:52 -16.63724 -49.41273 8657 ft 264 kts 327°
2026-05-06 01:52 -16.62106 -49.41990 8292 ft 247 kts 357°
2026-05-06 01:53 -16.60465 -49.41837 7895 ft 232 kts 24°
2026-05-06 01:53 -16.59067 -49.41074 7532 ft 224 kts 34°
2026-05-06 01:53 -16.57712 -49.40246 7004 ft 227 kts 34°
2026-05-06 01:53 -16.56351 -49.39403 6575 ft 226 kts 39°
2026-05-06 01:54 -16.55368 -49.38209 6164 ft 216 kts 70°
2026-05-06 01:54 -16.55194 -49.36707 5794 ft 209 kts 101°
2026-05-06 01:54 -16.55762 -49.35340 5451 ft 205 kts 118°
2026-05-06 01:54 -16.56482 -49.34067 5110 ft 202 kts 118°
2026-05-06 01:55 -16.57189 -49.32814 4770 ft 198 kts 118°
2026-05-06 01:55 -16.57870 -49.31608 4430 ft 188 kts 118°
2026-05-06 01:55 -16.58520 -49.30453 4104 ft 180 kts 117°
2026-05-06 01:55 -16.59119 -49.29393 3878 ft 162 kts 118°
2026-05-06 01:56 -16.59675 -49.28405 3673 ft 155 kts 119°
2026-05-06 01:56 -16.60206 -49.27459 3483 ft 146 kts 117°
2026-05-06 01:56 -16.60720 -49.26541 3274 ft 146 kts 119°
2026-05-06 01:56 -16.61230 -49.25632 3064 ft 146 kts 121°
2026-05-06 01:57 -16.61744 -49.24715 2853 ft 147 kts 122°
2026-05-06 01:57 -16.62257 -49.23798 2635 ft 145 kts 121°
2026-05-06 01:57 -16.62755 -49.22888 2476 ft 144 kts 121°
2026-05-06 01:57 -16.63260 -49.22021 2537 ft 151 kts 122°
2026-05-06 01:58 -16.63871 -49.20973 2927 ft 190 kts 123°
2026-05-06 01:58 -16.64636 -49.19702 3537 ft 217 kts 118°
2026-05-06 01:58 -16.65455 -49.18421 4671 ft 214 kts 134°
2026-05-06 01:58 -16.66841 -49.17797 5470 ft 229 kts 174°
2026-05-06 01:59 -16.68391 -49.18274 6269 ft 243 kts 214°
2026-05-06 01:59 -16.69422 -49.19693 6817 ft 254 kts 250°
2026-05-06 01:59 -16.69496 -49.21498 6963 ft 251 kts 289°
2026-05-06 01:59 -16.68749 -49.23129 7006 ft 250 kts 301°
2026-05-06 02:00 -16.67923 -49.24725 7007 ft 250 kts 301°
2026-05-06 02:00 -16.67106 -49.26297 7010 ft 250 kts 301°
2026-05-06 02:00 -16.66276 -49.27889 7009 ft 250 kts 301°
2026-05-06 02:00 -16.65458 -49.29483 7010 ft 250 kts 296°
2026-05-06 02:01 -16.64899 -49.31202 7010 ft 251 kts 284°
2026-05-06 02:01 -16.64551 -49.32977 7008 ft 250 kts 280°
2026-05-06 02:01 -16.64274 -49.34766 7004 ft 250 kts 279°
2026-05-06 02:01 -16.64005 -49.36565 6998 ft 251 kts 279°
2026-05-06 02:02 -16.63694 -49.38346 6989 ft 250 kts 288°
2026-05-06 02:02 -16.62857 -49.39895 6988 ft 245 kts 317°
2026-05-06 02:02 -16.61499 -49.40867 6980 ft 229 kts 344°
2026-05-06 02:02 -16.59989 -49.41137 6841 ft 215 kts
2026-05-06 02:03 -16.58575 -49.40765 6601 ft 207 kts 32°
2026-05-06 02:03 -16.57346 -49.40001 6328 ft 207 kts 35°
2026-05-06 02:03 -16.56120 -49.39204 6047 ft 206 kts 44°
2026-05-06 02:03 -16.55314 -49.38011 5735 ft 202 kts 74°
2026-05-06 02:04 -16.55225 -49.36599 5425 ft 194 kts 102°
2026-05-06 02:04 -16.55761 -49.35354 5141 ft 184 kts 118°
2026-05-06 02:04 -16.56400 -49.34230 4851 ft 176 kts 117°
2026-05-06 02:04 -16.56989 -49.33189 4636 ft 158 kts 117°
2026-05-06 02:05 -16.57529 -49.32230 4469 ft 149 kts 117°
2026-05-06 02:05 -16.58043 -49.31314 4284 ft 147 kts 117°
2026-05-06 02:05 -16.58551 -49.30404 4102 ft 145 kts 117°
2026-05-06 02:05 -16.59067 -49.29479 3905 ft 146 kts 117°
2026-05-06 02:06 -16.59571 -49.28581 3730 ft 145 kts 119°
2026-05-06 02:06 -16.60078 -49.27678 3512 ft 143 kts 116°
2026-05-06 02:06 -16.60580 -49.26783 3328 ft 144 kts 119°
2026-05-06 02:06 -16.61088 -49.25879 3123 ft 145 kts 121°
2026-05-06 02:07 -16.61599 -49.24964 2913 ft 146 kts 120°
2026-05-06 02:07 -16.62088 -49.24046 2654 ft 144 kts 120°
2026-05-06 02:07 -16.62602 -49.23156 2508 ft 143 kts 121°
2026-05-06 02:07 -16.63090 -49.22302 2461 ft 119 kts 120°
2026-05-06 02:08 -16.63348 -49.21843 2451 ft 43 kts 120°
2026-05-06 02:08 -16.63461 -49.21593 2455 ft 34 kts 104°
2026-05-06 02:08 -16.63464 -49.21400 2459 ft 20 kts 58°
2026-05-06 02:08 -16.63406 -49.21392 2458 ft 3 kts 290°
2026-05-06 02:09 -16.63383 -49.21438 2462 ft 11 kts 298°
2026-05-06 02:09 -16.63342 -49.21507 2454 ft 12 kts 304°
2026-05-06 02:09 -16.63293 -49.21588 2454 ft 14 kts 302°